KB7STN Weather Reports


time (UTC)temp
C
wind
direction
speed
KPH
gust
KPH
rain 1hr
cm
rain 24hr
cm
rain mn
cm
humidity
%
barometer
mb
20260507210712 21 150 0.0 0.0 0.00 0.00 0.00 25 1007.6
20260507210212 21 150 0.0 6.4 0.00 0.00 0.00 24 1007.7
20260507205712 21 162 1.6 4.8 0.00 0.00 0.00 24 1007.9
20260507205212 21 167 0.0 6.4 0.00 0.00 0.00 25 1008.0
20260507204712 21 173 1.6 1.6 0.00 0.00 0.00 26 1007.9
20260507204212 21 173 3.2 8.0 0.00 0.00 0.00 25 1007.9
20260507203712 21 184 3.2 8.0 0.00 0.00 0.00 25 1008.1
20260507203212 21 172 3.2 8.0 0.00 0.00 0.00 25 1008.0
20260507202712 21 149 3.2 9.7 0.00 0.00 0.00 25 1008.0
20260507202212 21 158 4.8 9.7 0.00 0.00 0.00 25 1008.1
20260507201712 22 161 3.2 12.9 0.00 0.00 0.00 24 1008.2
20260507201212 21 167 3.2 6.4 0.00 0.00 0.00 26 1008.2
20260507200712 21 168 4.8 9.7 0.00 0.00 0.00 27 1008.3
20260507200212 21 169 3.2 8.0 0.00 0.00 0.00 25 1008.4
20260507195712 21 173 4.8 9.7 0.00 0.00 0.00 25 1008.5
20260507195212 21 161 4.8 11.3 0.00 0.00 0.00 25 1008.5
20260507194712 22 201 4.8 12.9 0.00 0.00 0.00 25 1008.5
20260507194212 21 180 4.8 9.7 0.00 0.00 0.00 26 1008.6
20260507193712 21 199 4.8 9.7 0.00 0.00 0.00 26 1008.6
20260507193212 21 187 4.8 14.5 0.00 0.00 0.00 27 1008.7
20260507192712 21 171 4.8 9.7 0.00 0.00 0.00 26 1008.8
20260507192212 21 207 4.8 11.3 0.00 0.00 0.00 25 1008.9
20260507191712 21 185 3.2 9.7 0.00 0.00 0.00 26 1008.9
20260507191212 21 161 4.8 12.9 0.00 0.00 0.00 26 1009.1
20260507190712 21 186 3.2 11.3 0.00 0.00 0.00 27 1009.1
20260507190212 21 204 3.2 4.8 0.00 0.00 0.00 28 1009.2
20260507185712 20 212 3.2 6.4 0.00 0.00 0.00 28 1009.3
20260507185212 20 217 3.2 9.7 0.00 0.00 0.00 28 1009.4
20260507184712 20 222 4.8 9.7 0.00 0.00 0.00 28 1009.6
20260507184212 19 184 4.8 11.3 0.00 0.00 0.00 29 1009.6
20260507183712 19 224 4.8 9.7 0.00 0.00 0.00 29 1009.6
20260507183212 19 204 6.4 19.3 0.00 0.00 0.00 28 1009.8
20260507182712 19 172 4.8 14.5 0.00 0.00 0.00 28 1009.8
20260507182212 18 198 4.8 11.3 0.00 0.00 0.00 29 1009.9
20260507181712 18 162 6.4 12.9 0.00 0.00 0.00 31 1009.9
20260507181212 17 193 6.4 11.3 0.00 0.00 0.00 30 1010.1
20260507180712 17 188 4.8 11.3 0.00 0.00 0.00 31 1010.1
20260507180212 17 202 4.8 11.3 0.00 0.00 0.00 29 1010.2
20260507175712 17 195 6.4 11.3 0.00 0.00 0.00 30 1010.1
20260507175212 17 217 4.8 11.3 0.00 0.00 0.00 30 1010.2
20260507174712 17 189 6.4 9.7 0.00 0.00 0.00 30 1010.2
20260507174212 17 184 6.4 11.3 0.00 0.00 0.00 29 1010.3
20260507173712 17 218 8.0 12.9 0.00 0.00 0.00 30 1010.3
20260507173212 17 198 6.4 14.5 0.00 0.00 0.00 31 1010.3
20260507172712 17 189 6.4 12.9 0.00 0.00 0.00 31 1010.4
20260507172212 17 213 6.4 12.9 0.00 0.00 0.00 31 1010.4
20260507171712 17 209 6.4 14.5 0.00 0.00 0.00 31 1010.5
20260507171212 17 220 6.4 12.9 0.00 0.00 0.00 31 1010.7
20260507170712 16 167 6.4 14.5 0.00 0.00 0.00 31 1010.6
20260507170212 16 211 8.0 17.7 0.00 0.00 0.00 31 1010.7
20260507165712 15 194 8.0 14.5 0.00 0.00 0.00 31 1010.6
20260507165212 15 209 8.0 17.7 0.00 0.00 0.00 31 1010.8
20260507164712 15 215 8.0 14.5 0.00 0.00 0.00 31 1010.9
20260507164212 15 190 8.0 16.1 0.00 0.00 0.00 33 1010.9
20260507163712 14 215 8.0 16.1 0.00 0.00 0.00 32 1011.0
20260507163212 14 160 8.0 19.3 0.00 0.00 0.00 30 1010.9
20260507162712 15 207 6.4 12.9 0.00 0.00 0.00 30 1010.9
20260507162212 15 217 8.0 14.5 0.00 0.00 0.00 31 1010.8
20260507161712 15 208 8.0 16.1 0.00 0.00 0.00 30 1011.0
20260507161212 15 217 6.4 12.9 0.00 0.00 0.00 31 1011.0
20260507160712 14 191 6.4 19.3 0.00 0.00 0.00 31 1011.0
20260507160212 14 194 8.0 12.9 0.00 0.00 0.00 31 1010.9
20260507155712 13 203 8.0 19.3 0.00 0.00 0.00 32 1010.8
20260507155212 13 201 8.0 16.1 0.00 0.00 0.00 33 1010.7
20260507154712 13 200 8.0 19.3 0.00 0.00 0.00 32 1010.9
20260507154212 13 213 8.0 17.7 0.00 0.00 0.00 32 1011.0
20260507153712 13 207 8.0 12.9 0.00 0.00 0.00 32 1011.0
20260507153212 13 215 8.0 16.1 0.00 0.00 0.00 31 1011.2
20260507152712 13 190 8.0 20.9 0.00 0.00 0.00 32 1011.0
20260507152212 13 205 8.0 16.1 0.00 0.00 0.00 30 1010.8
20260507151712 13 213 8.0 19.3 0.00 0.00 0.00 30 1010.9
20260507151212 13 200 6.4 12.9 0.00 0.00 0.00 28 1010.9
20260507150712 14 204 6.4 16.1 0.00 0.00 0.00 28 1011.0
20260507150212 14 217 6.4 16.1 0.00 0.00 0.00 28 1010.9
20260507145712 14 263 4.8 11.3 0.00 0.00 0.00 28 1011.1
20260507145212 13 216 4.8 11.3 0.00 0.00 0.00 29 1011.1
20260507144712 13 185 4.8 11.3 0.00 0.00 0.00 29 1010.9
20260507144212 13 260 3.2 12.9 0.00 0.00 0.00 30 1011.0
20260507143712 13 284 4.8 9.7 0.00 0.00 0.00 31 1011.1
20260507143212 12 290 3.2 16.1 0.00 0.00 0.00 31 1011.4
20260507142712 12 262 3.2 6.4 0.00 0.00 0.00 32 1011.2
20260507142212 12 284 4.8 16.1 0.00 0.00 0.00 33 1011.3
20260507141712 12 274 3.2 11.3 0.00 0.00 0.00 34 1011.3
20260507141213 12 277 1.6 8.0 0.00 0.00 0.00 34 1011.3
20260507140712 12 277 1.6 8.0 0.00 0.00 0.00 35 1011.4
20260507140212 12 277 1.6 6.4 0.00 0.00 0.00 35 1011.4
20260507135712 12 277 1.6 14.5 0.00 0.00 0.00 35 1011.3
20260507135212 11 276 1.6 3.2 0.00 0.00 0.00 37 1011.4
20260507134712 11 276 3.2 11.3 0.00 0.00 0.00 36 1011.3
20260507134212 11 273 3.2 17.7 0.00 0.00 0.00 36 1011.4
20260507133712 11 286 3.2 17.7 0.00 0.00 0.00 36 1011.3
20260507133212 10 173 1.6 9.7 0.00 0.00 0.00 38 1011.4
20260507132712 10 188 0.0 4.8 0.00 0.00 0.00 41 1011.4
20260507132213 9 189 0.0 1.6 0.00 0.00 0.00 42 1011.5
20260507131712 9 189 0.0 4.8 0.00 0.00 0.00 42 1011.4
20260507131212 9 188 0.0 1.6 0.00 0.00 0.00 41 1011.2
20260507130712 9 188 0.0 3.2 0.00 0.00 0.00 41 1011.2
20260507130213 9 186 1.6 3.2 0.00 0.00 0.00 40 1011.2
20260507125712 9 186 1.6 8.0 0.00 0.00 0.00 38 1011.3
20260507125213 9 172 1.6 3.2 0.00 0.00 0.00 40 1011.5
20260507124713 9 172 1.6 6.4 0.00 0.00 0.00 39 1011.3
20260507124213 9 169 1.6 14.5 0.00 0.00 0.00 38 1011.4
20260507123713 9 158 0.0 4.8 0.00 0.00 0.00 40 1011.5
20260507123213 9 156 3.2 3.2 0.00 0.00 0.00 40 1011.5
20260507122713 8 156 3.2 19.3 0.00 0.00 0.00 39 1011.3
20260507122213 8 278 1.6 4.8 0.00 0.00 0.00 41 1011.2
20260507121713 8 278 1.6 4.8 0.00 0.00 0.00 41 1011.3
20260507121213 8 278 1.6 4.8 0.00 0.00 0.00 42 1011.3
20260507120713 8 278 1.6 3.2 0.00 0.00 0.00 41 1011.2
20260507120213 8 278 1.6 4.8 0.00 0.00 0.00 40 1011.1
20260507115713 8 278 0.0 3.2 0.00 0.00 0.00 39 1011.2
20260507115213 9 278 0.0 0.0 0.00 0.00 0.00 40 1011.2
20260507114713 9 278 0.0 0.0 0.00 0.00 0.00 38 1011.3
20260507114213 10 278 0.0 3.2 0.00 0.00 0.00 37 1011.3
20260507113713 10 278 0.0 3.2 0.00 0.00 0.00 37 1011.4
20260507113213 10 278 1.6 3.2 0.00 0.00 0.00 36 1011.6
20260507112713 10 278 1.6 3.2 0.00 0.00 0.00 35 1011.6
20260507112213 11 278 1.6 3.2 0.00 0.00 0.00 34 1011.7
20260507111713 11 278 3.2 4.8 0.00 0.00 0.00 34 1011.6
20260507111213 12 278 4.8 9.7 0.00 0.00 0.00 31 1011.6
20260507110713 12 278 4.8 17.7 0.00 0.00 0.00 30 1011.5
20260507110213 12 215 3.2 11.3 0.00 0.00 0.00 30 1011.5
20260507105713 12 220 3.2 11.3 0.00 0.00 0.00 30 1011.7
20260507105213 11 205 4.8 12.9 0.00 0.00 0.00 30 1011.7
20260507104713 11 222 4.8 11.3 0.00 0.00 0.00 30 1011.9
20260507104213 11 229 4.8 11.3 0.00 0.00 0.00 31 1011.7
20260507103713 11 235 3.2 12.9 0.00 0.00 0.00 31 1011.9
20260507103213 11 289 3.2 20.9 0.00 0.00 0.00 31 1011.9
20260507102713 11 254 3.2 8.0 0.00 0.00 0.00 32 1011.9
20260507102213 11 251 3.2 11.3 0.00 0.00 0.00 32 1012.0
20260507101713 11 257 3.2 8.0 0.00 0.00 0.00 34 1012.0
20260507101213 10 258 4.8 14.5 0.00 0.00 0.00 34 1011.9
20260507100713 10 254 4.8 11.3 0.00 0.00 0.00 35 1011.9
20260507100213 10 257 4.8 17.7 0.00 0.00 0.00 36 1012.1
20260507095713 10 290 4.8 11.3 0.00 0.00 0.00 37 1012.0
20260507095213 9 49 3.2 12.9 0.00 0.00 0.00 39 1012.2
20260507094713 9 182 1.6 4.8 0.00 0.00 0.00 39 1012.3
20260507094213 9 183 0.0 3.2 0.00 0.00 0.00 38 1012.5
20260507093713 9 183 0.0 3.2 0.00 0.00 0.00 39 1012.5
20260507093213 10 183 1.6 3.2 0.00 0.00 0.00 38 1012.6
20260507092713 10 183 1.6 4.8 0.00 0.00 0.00 38 1012.6
20260507092213 10 183 1.6 4.8 0.00 0.00 0.00 36 1012.6
20260507091713 10 184 1.6 4.8 0.00 0.00 0.00 37 1012.7
20260507091213 10 184 1.6 3.2 0.00 0.00 0.00 37 1012.7
20260507090713 10 184 1.6 0.0 0.00 0.05 0.00 36 1012.8
20260507090213 10 184 1.6 3.2 0.00 0.05 0.00 36 1012.9
20260507085713 10 182 1.6 4.8 0.00 0.05 0.00 36 1012.8
20260507085213 10 182 3.2 8.0 0.00 0.05 0.00 36 1012.8
20260507084713 10 0 3.2 9.7 0.00 0.05 0.00 35 1012.8
20260507084213 10 9 1.6 4.8 0.00 0.05 0.00 37 1013.0
20260507083713 10 9 1.6 4.8 0.00 0.05 0.00 36 1012.9
20260507083213 10 9 1.6 3.2 0.00 0.05 0.00 36 1013.2
20260507082713 10 9 3.2 6.4 0.00 0.05 0.00 36 1013.1
20260507082213 10 9 3.2 6.4 0.00 0.05 0.00 37 1013.1
20260507081713 10 23 3.2 6.4 0.00 0.05 0.00 35 1013.0
20260507081213 10 13 1.6 6.4 0.00 0.05 0.00 38 1013.1
20260507080713 9 11 1.6 8.0 0.00 0.23 0.00 39 1013.3
20260507080213 9 355 1.6 11.3 0.00 0.23 0.00 40 1013.2
20260507075713 9 38 1.6 3.2 0.00 0.23 0.00 40 1013.2
20260507075213 9 38 1.6 8.0 0.00 0.23 0.00 40 1013.3
20260507074713 9 38 0.0 0.0 0.00 0.23 0.00 40 1013.3
20260507074213 9 38 1.6 3.2 0.00 0.23 0.00 40 1013.4
20260507073713 9 38 0.0 4.8 0.00 0.23 0.00 40 1013.3
20260507073213 9 38 0.0 3.2 0.00 0.23 0.00 40 1013.4
20260507072713 9 38 0.0 3.2 0.00 0.23 0.00 41 1013.6
20260507072213 9 38 0.0 1.6 0.00 0.23 0.00 41 1013.6
20260507071713 8 38 0.0 3.2 0.00 0.23 0.00 41 1013.7
20260507071213 8 38 0.0 0.0 0.00 0.23 0.00 42 1013.7
20260507070713 8 38 0.0 0.0 0.00 0.23 0.00 41 1013.8
20260507070213 8 38 0.0 0.0 0.00 0.23 0.00 41 1013.8
20260507065713 8 38 0.0 0.0 0.00 0.23 0.00 42 1013.7
20260507065213 8 38 0.0 0.0 0.00 0.23 0.00 41 1013.7
20260507064713 8 38 0.0 0.0 0.00 0.23 0.00 41 1013.7
20260507064213 8 38 0.0 0.0 0.00 0.23 0.00 41 1013.7
20260507063713 8 38 0.0 0.0 0.00 0.23 0.00 41 1013.7
20260507063213 8 38 0.0 0.0 0.00 0.23 0.00 40 1013.7
20260507062713 8 38 0.0 1.6 0.00 0.23 0.00 40 1013.7
20260507062213 8 38 1.6 3.2 0.00 0.23 0.00 40 1013.7
20260507061713 8 38 0.0 4.8 0.00 0.23 0.00 41 1013.6
20260507061213 8 38 0.0 0.0 0.00 0.23 0.00 39 1013.6
20260507060713 8 38 0.0 0.0 0.00 0.23 0.00 40 1013.6
20260507060213 8 38 0.0 3.2 0.00 0.23 0.00 41 1013.6
20260507055713 8 38 0.0 1.6 0.00 0.23 0.23 40 1013.5
20260507055213 8 38 0.0 4.8 0.00 0.23 0.23 41 1013.5
20260507054713 8 38 0.0 0.0 0.00 0.23 0.23 41 1013.5
20260507054213 9 38 0.0 0.0 0.00 0.23 0.23 40 1013.4
20260507053713 9 38 1.6 3.2 0.00 0.23 0.23 40 1013.4
20260507053213 9 38 1.6 4.8 0.00 0.23 0.23 39 1013.5
20260507052713 10 38 0.0 3.2 0.00 0.23 0.23 38 1013.4
20260507052213 10 38 0.0 0.0 0.00 0.23 0.23 38 1013.4
20260507051713 10 38 0.0 0.0 0.00 0.23 0.23 37 1013.4
20260507051213 10 38 0.0 1.6 0.00 0.23 0.23 37 1013.5
20260507050713 10 38 0.0 0.0 0.00 0.23 0.23 36 1013.5
20260507050213 10 38 0.0 0.0 0.00 0.23 0.23 36 1013.6
20260507045713 10 38 0.0 0.0 0.00 0.23 0.23 37 1013.7
20260507045213 10 38 0.0 0.0 0.00 0.23 0.23 37 1013.7
20260507044713 10 38 0.0 0.0 0.00 0.23 0.23 37 1013.7
20260507044213 10 38 0.0 0.0 0.00 0.23 0.23 38 1013.7
20260507043713 10 38 0.0 0.0 0.00 0.23 0.23 38 1013.6
20260507043213 10 38 0.0 0.0 0.00 0.23 0.23 36 1013.6
20260507042713 10 38 0.0 0.0 0.00 0.23 0.23 37 1013.5
20260507042213 10 38 0.0 0.0 0.00 0.23 0.23 36 1013.5
20260507041713 10 38 0.0 0.0 0.00 0.23 0.23 35 1013.5
20260507041213 10 38 0.0 0.0 0.00 0.23 0.23 35 1013.5
20260507040713 10 38 0.0 0.0 0.00 0.23 0.23 35 1013.6
20260507040214 10 38 0.0 0.0 0.00 0.23 0.23 35 1013.6
20260507035713 10 38 0.0 0.0 0.00 0.23 0.23 35 1013.7
20260507035213 10 38 0.0 0.0 0.00 0.23 0.23 36 1013.7
20260507034713 10 38 0.0 0.0 0.00 0.23 0.23 36 1013.7
20260507034213 10 38 0.0 0.0 0.00 0.23 0.23 36 1013.6
20260507033713 10 38 0.0 0.0 0.00 0.23 0.23 35 1013.5
20260507033213 10 38 0.0 0.0 0.00 0.23 0.23 35 1013.5
20260507032713 10 38 0.0 0.0 0.00 0.23 0.23 35 1013.4
20260507032213 10 38 0.0 0.0 0.00 0.23 0.23 34 1013.2
20260507031714 11 38 0.0 0.0 0.00 0.23 0.23 34 1013.1
20260507031214 11 38 0.0 0.0 0.00 0.23 0.23 34 1013.1
20260507030713 11 38 0.0 0.0 0.00 0.23 0.23 35 1013.1
20260507030213 11 38 0.0 0.0 0.00 0.23 0.23 34 1013.1
20260507025714 11 38 0.0 0.0 0.00 0.23 0.23 34 1013.1
20260507025213 11 38 0.0 0.0 0.00 0.23 0.23 34 1013.1
20260507024714 12 38 0.0 0.0 0.00 0.23 0.23 32 1013.2
20260507024213 12 38 0.0 0.0 0.00 0.23 0.23 32 1013.2
20260507023714 12 38 0.0 0.0 0.00 0.23 0.23 32 1013.1
20260507023214 12 38 0.0 3.2 0.00 0.23 0.23 32 1013.1
20260507022714 12 38 0.0 0.0 0.00 0.23 0.23 30 1013.0
20260507022214 13 38 0.0 1.6 0.00 0.23 0.23 28 1013.1
20260507021714 13 38 0.0 1.6 0.00 0.23 0.23 30 1013.1
20260507021214 13 38 0.0 1.6 0.00 0.23 0.23 26 1013.0
20260507020714 13 38 0.0 3.2 0.00 0.23 0.23 26 1013.0
20260507020214 14 38 0.0 3.2 0.00 0.23 0.23 26 1013.0
20260507015714 14 38 1.6 6.4 0.00 0.23 0.23 26 1013.1
20260507015214 14 38 1.6 6.4 0.00 0.23 0.23 26 1013.1
20260507014714 15 38 0.0 4.8 0.00 0.23 0.23 25 1013.1
20260507014214 15 38 1.6 3.2 0.00 0.23 0.23 24 1013.1
20260507013714 15 38 3.2 6.4 0.00 0.23 0.23 24 1013.1
20260507013214 15 38 1.6 6.4 0.00 0.23 0.23 23 1013.1
20260507012714 15 38 1.6 6.4 0.00 0.23 0.23 23 1013.1
20260507012214 15 38 3.2 11.3 0.00 0.23 0.23 23 1013.2
20260507011714 16 37 3.2 11.3 0.00 0.23 0.23 23 1013.1
20260507011214 16 41 1.6 8.0 0.00 0.23 0.23 23 1013.2
20260507010714 16 38 1.6 6.4 0.00 0.23 0.23 24 1013.2
20260507010214 16 38 3.2 8.0 0.00 0.23 0.23 23 1013.2
20260507005714 16 39 3.2 8.0 0.00 0.23 0.23 24 1013.4
20260507005214 16 38 3.2 8.0 0.00 0.23 0.23 23 1013.3
20260507004714 16 39 4.8 8.0 0.00 0.23 0.23 23 1013.4
20260507004214 16 31 4.8 11.3 0.00 0.23 0.23 23 1013.4
20260507003714 16 29 4.8 11.3 0.00 0.23 0.23 23 1013.4
20260507003214 16 30 4.8 12.9 0.00 0.23 0.23 23 1013.3
20260507002714 16 46 3.2 9.7 0.00 0.23 0.23 24 1013.2
20260507002214 16 34 3.2 14.5 0.00 0.23 0.23 24 1013.3
20260507001714 16 28 4.8 12.9 0.00 0.23 0.23 23 1013.2
20260507001214 16 46 4.8 12.9 0.00 0.23 0.23 24 1013.3
20260507000714 15 42 4.8 12.9 0.00 0.23 0.23 24 1013.3
20260507000214 15 61 4.8 12.9 0.00 0.23 0.23 23 1013.3
20260506235714 15 71 6.4 14.5 0.00 0.23 0.23 23 1013.3
20260506235214 15 38 6.4 16.1 0.00 0.23 0.23 24 1013.3
20260506234714 15 39 6.4 12.9 0.00 0.23 0.23 23 1013.2
20260506234214 15 29 6.4 19.3 0.00 0.23 0.23 23 1013.3
20260506233714 15 47 6.4 12.9 0.00 0.23 0.23 24 1013.2
20260506233214 15 32 6.4 16.1 0.00 0.23 0.23 23 1013.2
20260506232714 16 50 4.8 14.5 0.00 0.23 0.23 23 1013.1
20260506232214 16 14 4.8 14.5 0.00 0.23 0.23 24 1013.2
20260506231714 16 62 4.8 11.3 0.00 0.23 0.23 24 1013.2
20260506231214 15 33 4.8 11.3 0.00 0.23 0.23 25 1013.2
20260506230714 15 34 6.4 14.5 0.00 0.23 0.23 24 1013.3
20260506230214 15 46 4.8 16.1 0.00 0.23 0.23 23 1013.2
20260506225714 15 64 6.4 12.9 0.00 0.23 0.23 25 1013.2
20260506225214 15 54 6.4 17.7 0.00 0.23 0.23 23 1013.2
20260506224714 16 106 4.8 20.9 0.00 0.23 0.23 24 1013.3
20260506224214 15 24 6.4 14.5 0.00 0.23 0.23 26 1013.4
20260506223714 15 57 6.4 20.9 0.00 0.23 0.23 24 1013.4
20260506223214 15 42 4.8 14.5 0.00 0.23 0.23 25 1013.4
20260506222714 15 65 4.8 17.7 0.00 0.23 0.23 26 1013.4
20260506222214 15 62 4.8 12.9 0.00 0.23 0.23 26 1013.4
20260506221714 15 31 4.8 14.5 0.00 0.23 0.23 26 1013.4
20260506221214 15 26 6.4 14.5 0.00 0.23 0.23 27 1013.5
20260506220714 15 28 6.4 16.1 0.00 0.23 0.23 27 1013.6
20260506220214 15 33 4.8 14.5 0.00 0.23 0.23 27 1013.5
20260506215714 15 28 6.4 9.7 0.00 0.23 0.23 27 1013.5
20260506215214 15 27 6.4 17.7 0.00 0.23 0.23 27 1013.7
20260506214714 15 313 6.4 19.3 0.00 0.23 0.23 27 1013.8
20260506214214 15 28 6.4 19.3 0.00 0.23 0.23 29 1013.8
20260506213714 15 34 4.8 16.1 0.00 0.23 0.23 27 1013.8
20260506213214 15 29 4.8 16.1 0.00 0.23 0.23 30 1013.9
20260506212714 15 57 4.8 14.5 0.00 0.23 0.23 27 1014.0
20260506212214 15 37 4.8 12.9 0.00 0.23 0.23 29 1014.1
20260506211714 15 33 4.8 11.3 0.00 0.23 0.23 29 1014.0
20260506211214 15 21 6.4 22.5 0.00 0.23 0.23 28 1014.0